Regional Weather Roundup
Issued by NWS

Home | Current Version | Previous Version | Text Only | Print | Product List | Glossary On
Versions: 1 2 3 4 5 6 7 8 9 10 11 12 13 14 15 16 17 18 19 20 21 22 23 24 25 26 27 28 29 30 31 32 33 34 35 36 37 38 39 40 41 42 43 44 45 46 47 48 49 50
000
ASUS43 KDTX 231310
RWRMI
MICHIGAN HOURLY REGIONAL WEATHER ROUNDUP
NATIONAL WEATHER SERVICE DETROIT/PONTIAC MI
900 AM EDT MON APR 23 2018

NOTE: "FAIR" INDICATES FEW OR NO CLOUDS BELOW 12,000 FEET WITH NO
SIGNIFICANT WEATHER AND/OR OBSTRUCTION TO VISIBILITY.

MIZ047>049-052>055-059>063-066>070-074>076-081>083-231400-
SOUTHEAST LOWER MICHIGAN

CITY           SKY/WX    TMP DP  RH WIND       PRES   REMARKS
ADRIAN         FAIR      48  31  51 E8        30.25S
ALMA           FAIR      45  32  61 NE5       30.31F
ANN ARBOR      FAIR      50  31  48 NE8       30.26R
BAD AXE        FAIR      51  21  30 SE7       30.33S
CARO           FAIR      49  26  39 E6        30.30S
DETROIT CITY   FAIR      49  32  52 E10       30.29S
DETROIT        PTSUNNY   53  32  44 E8        30.27R
FLINT          FAIR      49  28  44 E6        30.29F
GROSSE ILE     FAIR      49  35  57 NE6       30.26S
HILLSDALE      FAIR      50  28  43 E10       30.22S
HOWELL         FAIR      51  28  41 E9        30.25F

CITY           SKY/WX    TMP DP  RH WIND       PRES   REMARKS
JACKSON        FAIR      49  29  46 NE8       30.24S
LAMBERTVILLE   FAIR      51  37  59 E6        30.24S
LANSING        FAIR      47  29  49 NE7       30.27F
LAPEER         FAIR      49  27  43 SE5       30.30F
MASON          FAIR      49  25  38 E5        30.26S
MONROE         FAIR      50  33  51 E7        30.26R
MT. CLEMENS    PTSUNNY   49  31  51 NE8       30.27F
PONTIAC        PTSUNNY   50  27  40 NE10      30.27F
PORT HOPE        N/A     41  32  70 SE8       30.33S
PORT HURON     FAIR      52  28  40 SE9       30.31S
TRI CITIES     FAIR      45  36  70 NE7       30.32S
MIDLAND        FAIR      47  30  51 NE5       30.32S
TROY           FAIR      49  26  40 E12       30.30S
SAGINAW HB     FAIR      46  30  53 NE6       30.31S
$$
MIZ043>046-050>051-056>058-064>065-071>073-077>080-231400-
SOUTHWEST LOWER MICHIGAN

CITY           SKY/WX    TMP DP  RH WIND       PRES   REMARKS
BATTLE CREEK   FAIR      48  26  42 E7        30.24S
BENTON HARBOR  FAIR      50  26  39 E8        30.21F
BIG RAPIDS     FAIR      44  26  50 N3        30.30F
COLDWATER      FAIR      48  28  44 E7        30.21S
FREMONT        FAIR      49  19  30 E9        30.28S
HOLLAND        FAIR      47  28  47 E8        30.25F
GRAND RAPIDS   PTSUNNY   47  28  47 NE12      30.26F
IONIA          FAIR      45  29  52 NE10      30.27S
KALAMAZOO      FAIR      49  27  42 NE6       30.24S
LUDINGTON      FAIR      46  30  54 E6        30.30F
MARSHALL       FAIR      49  27  42 E8        30.23S
MOUNT PLEASANT FAIR      44  30  58 N3        30.32R
MUSKEGON       PTSUNNY   50  26  39 NE10      30.27F
SOUTH HAVEN    FAIR      49  25  40 E9        30.22F
$$
MIZ016>042-231400-
NORTHERN LOWER MICHIGAN

CITY           SKY/WX    TMP DP  RH WIND       PRES   REMARKS
ALPENA         FAIR      36  30  79 CALM      30.36S
BEAVER ISLAND  FAIR      50  17  27 S8        30.33S
BELLAIRE       FAIR      38  30  73 CALM      30.34S
CADILLAC       FAIR      43  24  47 E3        30.31S
CHARLEVOIX     FAIR      46  24  42 SE3       30.36S
FRANKFORT      FAIR      48  31  53 CALM      30.32S
GAYLORD        FAIR      42  19  39 S3        30.33S
GRAYLING       FAIR      36  24  60 CALM      30.33F
HARBOR SPRINGS FAIR      42  28  59 E5        30.34S
HOUGHTON LAKE  FAIR      45  29  53 E5        30.33F
MANISTEE       FAIR      47  29  49 E7        30.31S
OSCODA         FAIR      43  27  54 CALM      30.35F
PELLSTON       FAIR      40  25  55 CALM      30.34F
ROGERS CITY    FAIR      45  22  40 CALM      30.36S
TRAVERSE CITY  FAIR      45  27  49 CALM      30.33S
$$
MIZ007>008-015-231400-
EASTERN UPPER MICHIGAN

CITY           SKY/WX    TMP DP  RH WIND       PRES   REMARKS
KINROSS        FAIR      42  24  49 SE7       30.34S
MACKINAC ISLAN FAIR      46  19  33 S3        30.33F
NEWBERRY       FAIR      45  23  41 S12       30.30F
S. S. MARIE    FAIR      41  24  51 E5        30.35R
MUNISING         N/A     48  19  31 SW9       30.28F
$$
MIZ004>006-011>014-085-231400-
CENTRAL UPPER MICHIGAN

CITY           SKY/WX    TMP DP  RH WIND       PRES   REMARKS
MANISTIQUE     FAIR      43  29  59 S7        30.31S
ESCANABA       FAIR      39  27  62 CALM      30.32S
MENOMINEE      FAIR      41  28  60 CALM      30.32S
SAWYER-GWINN   SUNNY     34  21  60 CALM      30.29S
$$
MIZ001>003-009>011-084-231400-
WESTERN UPPER MICHIGAN

CITY           SKY/WX    TMP DP  RH WIND       PRES   REMARKS
IRON MOUNTAIN  FAIR      38  24  57 N3        30.29R
HOUGHTON       FAIR      45  19  35 CALM      30.23S
COPPER HARBOR    N/A     51  22  31 VRB7      30.22S
IRONWOOD       FAIR      48  26  42 SW8       30.26S
$$

ABBREVIATIONS USED IN REMARKS
   TC - TEMPERATURE IN CELSIUS
  WCI - WIND CHILL INDEX
   HX - HEAT INDEX
  VSB - VISIBILITY





USA.gov is the U.S. government's official web portal to all federal, state and local government web resources and services.